TimeCDT,TemperatureF,Dew PointF,Humidity,Sea Level PressureIn,VisibilityMPH,Wind Direction,Wind SpeedMPH,Gust SpeedMPH,PrecipitationIn,Events,Conditions,WindDirDegrees,DateUTC
12:54 AM,36.0,34.0,93,30.34,-9999.0,North,4.6,-,N/A,,Clear,350,2013-09-16 05:54:00
1:54 AM,37.0,35.1,93,30.34,-9999.0,NNW,3.5,-,N/A,,Clear,340,2013-09-16 06:54:00
2:54 AM,37.9,36.0,93,30.35,-9999.0,Calm,Calm,-,N/A,,Clear,0,2013-09-16 07:54:00
3:36 AM,33.8,33.8,100,30.33,-9999.0,Calm,Calm,-,N/A,,Scattered Clouds,0,2013-09-16 08:36:00
3:54 AM,34.0,33.1,96,30.37,-9999.0,Calm,Calm,-,N/A,,Partly Cloudy,0,2013-09-16 08:54:00
4:54 AM,34.0,33.1,96,30.39,-9999.0,Calm,Calm,-,N/A,,Clear,0,2013-09-16 09:54:00
5:27 AM,33.8,32.0,93,30.36,-9999.0,Calm,Calm,-,N/A,,Scattered Clouds,0,2013-09-16 10:27:00
5:54 AM,32.0,30.9,96,30.41,-9999.0,Calm,Calm,-,N/A,,Scattered Clouds,0,2013-09-16 10:54:00
6:15 AM,32.0,30.2,93,30.38,-9999.0,Calm,Calm,-,N/A,,Mostly Cloudy,0,2013-09-16 11:15:00
6:54 AM,32.0,30.9,96,30.44,-9999.0,Calm,Calm,-,N/A,,Overcast,0,2013-09-16 11:54:00
7:54 AM,39.0,37.0,93,30.44,-9999.0,Calm,Calm,-,N/A,,Overcast,0,2013-09-16 12:54:00
8:23 AM,42.8,39.2,87,30.41,-9999.0,Calm,Calm,-,N/A,,Scattered Clouds,0,2013-09-16 13:23:00
8:54 AM,45.0,41.0,86,30.45,10.0,North,4.6,-,N/A,,Clear,350,2013-09-16 13:54:00
9:54 AM,52.0,39.0,61,30.46,10.0,ENE,5.8,-,N/A,,Clear,60,2013-09-16 14:54:00
10:54 AM,54.0,39.0,57,30.46,10.0,ENE,5.8,-,N/A,,Partly Cloudy,70,2013-09-16 15:54:00
11:54 AM,55.9,37.9,51,30.45,10.0,NE,4.6,-,N/A,,Partly Cloudy,50,2013-09-16 16:54:00
12:54 PM,57.0,39.0,51,30.45,10.0,Variable,4.6,-,N/A,,Mostly Cloudy,0,2013-09-16 17:54:00
1:54 PM,60.1,39.0,46,30.43,-9999.0,WSW,3.5,-,N/A,,Clear,250,2013-09-16 18:54:00
2:54 PM,61.0,37.0,41,30.41,-9999.0,Calm,Calm,-,N/A,,Clear,0,2013-09-16 19:54:00
3:54 PM,61.0,37.0,41,30.40,10.0,Calm,Calm,-,N/A,,Clear,0,2013-09-16 20:54:00
4:54 PM,62.1,37.0,39,30.39,10.0,Calm,Calm,-,N/A,,Clear,0,2013-09-16 21:54:00
5:54 PM,60.1,37.9,44,30.38,10.0,South,4.6,-,N/A,,Clear,180,2013-09-16 22:54:00
6:54 PM,55.0,43.0,64,30.37,10.0,Calm,Calm,-,N/A,,Clear,0,2013-09-16 23:54:00
7:54 PM,50.0,42.1,74,30.38,10.0,SE,5.8,-,N/A,,Clear,140,2013-09-17 00:54:00
8:54 PM,46.9,41.0,80,30.38,10.0,SE,4.6,-,N/A,,Clear,140,2013-09-17 01:54:00
9:54 PM,46.0,39.9,79,30.38,10.0,SSE,3.5,-,N/A,,Clear,150,2013-09-17 02:54:00
10:54 PM,45.0,39.0,80,30.38,10.0,SE,3.5,-,N/A,,Clear,130,2013-09-17 03:54:00
11:54 PM,43.0,39.0,86,30.38,10.0,Calm,Calm,-,N/A,,Clear,0,2013-09-17 04:54:00